Year,Month,Day,Hour,Minute,Value (Times are PST for temperature in C)
2019,09,19,00,00,11.20
2019,09,19,00,01,11.20
2019,09,19,00,02,11.20
2019,09,19,00,03,11.20
2019,09,19,00,04,11.20
2019,09,19,00,05,11.20
2019,09,19,00,06,11.20
2019,09,19,00,07,11.20
2019,09,19,00,08,11.20
2019,09,19,00,09,11.20
2019,09,19,00,10,11.20
2019,09,19,00,11,11.20
2019,09,19,00,12,11.20
2019,09,19,00,13,11.20
2019,09,19,00,14,11.20
2019,09,19,00,15,11.20
2019,09,19,00,16,11.20
2019,09,19,00,17,11.20
2019,09,19,00,18,11.20
2019,09,19,00,19,11.20
2019,09,19,00,20,11.20
2019,09,19,00,21,11.20
2019,09,19,00,22,11.10
2019,09,19,00,23,11.10
2019,09,19,00,24,11.10
2019,09,19,00,25,11.10
2019,09,19,00,26,11.10
2019,09,19,00,27,11.10
2019,09,19,00,28,11.10
2019,09,19,00,29,11.10
2019,09,19,00,30,11.10
2019,09,19,00,31,11.10
2019,09,19,00,32,11.10
2019,09,19,00,33,11.10
2019,09,19,00,34,11.10
2019,09,19,00,35,11.10
2019,09,19,00,36,11.10
2019,09,19,00,37,11.00
2019,09,19,00,38,11.10
2019,09,19,00,39,11.10
2019,09,19,00,40,11.00
2019,09,19,00,41,11.10
2019,09,19,00,42,11.00
2019,09,19,00,43,11.00
2019,09,19,00,44,11.00
2019,09,19,00,45,11.00
2019,09,19,00,46,11.10
2019,09,19,00,47,11.10
2019,09,19,00,48,11.10
2019,09,19,00,49,11.10
2019,09,19,00,50,11.20
2019,09,19,00,51,11.20
2019,09,19,00,52,11.20
2019,09,19,00,53,11.20
2019,09,19,00,54,11.20
2019,09,19,00,55,11.20
2019,09,19,00,56,11.20
2019,09,19,00,57,11.20
2019,09,19,00,58,11.20
2019,09,19,00,59,11.20
2019,09,19,01,00,11.20
2019,09,19,01,01,11.20
2019,09,19,01,02,11.20
2019,09,19,01,03,11.20
2019,09,19,01,04,11.20
2019,09,19,01,05,11.20
2019,09,19,01,06,11.20
2019,09,19,01,07,11.30
2019,09,19,01,08,11.30
2019,09,19,01,09,11.30
2019,09,19,01,10,11.30
2019,09,19,01,11,11.30
2019,09,19,01,12,11.30
2019,09,19,01,13,11.30
2019,09,19,01,14,11.40
2019,09,19,01,15,11.40
2019,09,19,01,16,11.40
2019,09,19,01,17,11.40
2019,09,19,01,18,11.40
2019,09,19,01,19,11.40
2019,09,19,01,20,11.40
2019,09,19,01,21,11.60
2019,09,19,01,22,11.70
2019,09,19,01,23,11.80
2019,09,19,01,24,11.80
2019,09,19,01,25,11.90
2019,09,19,01,26,11.90
2019,09,19,01,27,12.00
2019,09,19,01,28,12.00
2019,09,19,01,29,12.00
2019,09,19,01,30,12.00
2019,09,19,01,31,12.00
2019,09,19,01,32,12.00
2019,09,19,01,33,12.00
2019,09,19,01,34,12.00
2019,09,19,01,35,12.00
2019,09,19,01,36,12.00
2019,09,19,01,37,11.90
2019,09,19,01,38,11.90
2019,09,19,01,39,11.90
2019,09,19,01,40,11.80
2019,09,19,01,41,11.80
2019,09,19,01,42,11.90
2019,09,19,01,43,11.80
2019,09,19,01,44,11.80
2019,09,19,01,45,11.80
2019,09,19,01,46,11.80
2019,09,19,01,47,11.80
2019,09,19,01,48,11.80
2019,09,19,01,49,11.70
2019,09,19,01,50,11.80
2019,09,19,01,51,11.80
2019,09,19,01,52,11.80
2019,09,19,01,53,11.80
2019,09,19,01,54,11.80
2019,09,19,01,55,11.80
2019,09,19,01,56,11.80
2019,09,19,01,57,11.90
2019,09,19,01,58,11.90
2019,09,19,01,59,11.90
2019,09,19,02,00,11.80
2019,09,19,02,01,11.90
2019,09,19,02,02,12.00
2019,09,19,02,03,12.00
2019,09,19,02,04,12.00
2019,09,19,02,05,12.10
2019,09,19,02,06,12.30
2019,09,19,02,07,12.30
2019,09,19,02,08,12.30
2019,09,19,02,09,12.40
2019,09,19,02,10,12.40
2019,09,19,02,11,12.40
2019,09,19,02,12,12.50
2019,09,19,02,13,12.50
2019,09,19,02,14,12.40
2019,09,19,02,15,12.40
2019,09,19,02,16,12.40
2019,09,19,02,17,12.40
2019,09,19,02,18,12.30
2019,09,19,02,19,12.30
2019,09,19,02,20,12.30
2019,09,19,02,21,12.30
2019,09,19,02,22,12.30
2019,09,19,02,23,12.30
2019,09,19,02,24,12.30
2019,09,19,02,25,12.40
2019,09,19,02,26,12.40
2019,09,19,02,27,12.50
2019,09,19,02,28,12.50
2019,09,19,02,29,12.60
2019,09,19,02,30,12.70
2019,09,19,02,31,12.70
2019,09,19,02,32,12.80
2019,09,19,02,33,12.80
2019,09,19,02,34,12.80
2019,09,19,02,35,12.90
2019,09,19,02,36,12.90
2019,09,19,02,37,13.00
2019,09,19,02,38,13.10
2019,09,19,02,39,13.10
2019,09,19,02,40,13.10
2019,09,19,02,41,13.20
2019,09,19,02,42,13.20
2019,09,19,02,43,13.20
2019,09,19,02,44,13.20
2019,09,19,02,45,13.20
2019,09,19,02,46,13.20
2019,09,19,02,47,13.20
2019,09,19,02,48,13.20
2019,09,19,02,49,13.20
2019,09,19,02,50,13.20
2019,09,19,02,51,13.20
2019,09,19,02,52,13.20
2019,09,19,02,53,13.20
2019,09,19,02,54,13.20
2019,09,19,02,55,13.30
2019,09,19,02,56,13.30
2019,09,19,02,57,13.30
2019,09,19,02,58,13.30
2019,09,19,02,59,13.20
2019,09,19,03,00,13.20
2019,09,19,03,01,13.20
2019,09,19,03,02,13.20
2019,09,19,03,03,13.20
2019,09,19,03,04,13.30
2019,09,19,03,05,13.30
2019,09,19,03,06,13.20
2019,09,19,03,07,13.20
2019,09,19,03,08,13.20
2019,09,19,03,09,13.20
2019,09,19,03,10,13.20
2019,09,19,03,11,13.10
2019,09,19,03,12,13.10
2019,09,19,03,13,13.00
2019,09,19,03,14,13.00
2019,09,19,03,15,12.90
2019,09,19,03,16,12.90
2019,09,19,03,17,12.90
2019,09,19,03,18,13.00
2019,09,19,03,19,12.90
2019,09,19,03,20,12.90
2019,09,19,03,21,12.80
2019,09,19,03,22,12.80
2019,09,19,03,23,12.80
2019,09,19,03,24,12.80
2019,09,19,03,25,12.70
2019,09,19,03,26,12.60
2019,09,19,03,27,12.60
2019,09,19,03,28,12.60
2019,09,19,03,29,12.60
2019,09,19,03,30,12.60
2019,09,19,03,31,12.60
2019,09,19,03,32,12.70
2019,09,19,03,33,12.60
2019,09,19,03,34,12.60
2019,09,19,03,35,12.70
2019,09,19,03,36,12.70
2019,09,19,03,37,12.70
2019,09,19,03,38,12.70
2019,09,19,03,39,12.70
2019,09,19,03,40,12.70
2019,09,19,03,41,12.70
2019,09,19,03,42,12.70
2019,09,19,03,43,12.70
2019,09,19,03,44,12.70
2019,09,19,03,45,12.60
2019,09,19,03,46,12.60
2019,09,19,03,47,12.60
2019,09,19,03,48,12.60
2019,09,19,03,49,12.60
2019,09,19,03,50,12.60
2019,09,19,03,51,12.60
2019,09,19,03,52,12.60
2019,09,19,03,53,12.50
2019,09,19,03,54,12.50
2019,09,19,03,55,12.40
2019,09,19,03,56,12.40
2019,09,19,03,57,12.40
2019,09,19,03,58,12.30
2019,09,19,03,59,12.30
2019,09,19,04,00,12.30
2019,09,19,04,01,12.30
2019,09,19,04,02,12.30
2019,09,19,04,03,12.30
2019,09,19,04,04,12.30
2019,09,19,04,05,12.30
2019,09,19,04,06,12.30
2019,09,19,04,07,12.30
2019,09,19,04,08,12.20
2019,09,19,04,09,12.20
2019,09,19,04,10,12.20
2019,09,19,04,11,12.20
2019,09,19,04,12,12.20
2019,09,19,04,13,12.20
2019,09,19,04,14,12.20
2019,09,19,04,15,12.20
2019,09,19,04,16,12.30
2019,09,19,04,17,12.30
2019,09,19,04,18,12.40
2019,09,19,04,19,12.40
2019,09,19,04,20,12.40
2019,09,19,04,21,12.30
2019,09,19,04,22,12.30
2019,09,19,04,23,12.30
2019,09,19,04,24,12.30
2019,09,19,04,25,12.30
2019,09,19,04,26,12.20
2019,09,19,04,27,12.20
2019,09,19,04,28,12.20
2019,09,19,04,29,12.20
2019,09,19,04,30,12.20
2019,09,19,04,31,12.10
2019,09,19,04,32,12.10
2019,09,19,04,33,12.10
2019,09,19,04,34,12.00
2019,09,19,04,35,12.00
2019,09,19,04,36,12.00
2019,09,19,04,37,12.00
2019,09,19,04,38,11.90
2019,09,19,04,39,11.90
2019,09,19,04,40,11.90
2019,09,19,04,41,11.80
2019,09,19,04,42,11.80
2019,09,19,04,43,11.80
2019,09,19,04,44,11.80
2019,09,19,04,45,11.80
2019,09,19,04,46,11.80
2019,09,19,04,47,11.70
2019,09,19,04,48,11.70
2019,09,19,04,49,11.70
2019,09,19,04,50,11.70
2019,09,19,04,51,11.80
2019,09,19,04,52,11.80
2019,09,19,04,53,11.80
2019,09,19,04,54,11.80
2019,09,19,04,55,11.80
2019,09,19,04,56,11.80
2019,09,19,04,57,11.70
2019,09,19,04,58,11.70
2019,09,19,04,59,11.70
2019,09,19,05,00,11.60
2019,09,19,05,01,11.60
2019,09,19,05,02,11.50
2019,09,19,05,03,11.50
2019,09,19,05,04,11.50
2019,09,19,05,05,11.40
2019,09,19,05,06,11.40
2019,09,19,05,07,11.40
2019,09,19,05,08,11.40
2019,09,19,05,09,11.30
2019,09,19,05,10,11.30
2019,09,19,05,11,11.30
2019,09,19,05,12,11.30
2019,09,19,05,13,11.30
2019,09,19,05,14,11.20
2019,09,19,05,15,11.20
2019,09,19,05,16,11.20
2019,09,19,05,17,11.20
2019,09,19,05,18,11.20
2019,09,19,05,19,11.10
2019,09,19,05,20,11.10
2019,09,19,05,21,11.10
2019,09,19,05,22,11.10
2019,09,19,05,23,11.10
2019,09,19,05,24,11.00
2019,09,19,05,25,11.00
2019,09,19,05,26,11.00
2019,09,19,05,27,11.00
2019,09,19,05,28,11.00
2019,09,19,05,29,11.00
2019,09,19,05,30,11.00
2019,09,19,05,31,10.90
2019,09,19,05,32,10.90
2019,09,19,05,33,10.90
2019,09,19,05,34,10.90
2019,09,19,05,35,10.90
2019,09,19,05,36,10.90
2019,09,19,05,37,10.90
2019,09,19,05,38,10.90
2019,09,19,05,39,10.90
2019,09,19,05,40,10.90
2019,09,19,05,41,10.90
2019,09,19,05,42,10.90
2019,09,19,05,43,10.90
2019,09,19,05,44,10.90
2019,09,19,05,45,10.90
2019,09,19,05,46,10.90
2019,09,19,05,47,10.90
2019,09,19,05,48,10.90
2019,09,19,05,49,10.80
2019,09,19,05,50,10.80
2019,09,19,05,51,10.80
2019,09,19,05,52,10.80
2019,09,19,05,53,10.80
2019,09,19,05,54,10.80
2019,09,19,05,55,10.80
2019,09,19,05,56,10.80
2019,09,19,05,57,10.80
2019,09,19,05,58,10.80
2019,09,19,05,59,10.80
2019,09,19,06,00,10.80
2019,09,19,06,01,10.80
2019,09,19,06,02,10.80
2019,09,19,06,03,10.80
2019,09,19,06,04,10.80
2019,09,19,06,05,10.80
2019,09,19,06,06,10.80
2019,09,19,06,07,10.80
2019,09,19,06,08,10.80
2019,09,19,06,09,10.80
2019,09,19,06,10,10.80
2019,09,19,06,11,10.80
2019,09,19,06,12,10.80
2019,09,19,06,13,10.80
2019,09,19,06,14,10.80
2019,09,19,06,15,10.80
2019,09,19,06,16,10.80
2019,09,19,06,17,10.80
2019,09,19,06,18,10.80
2019,09,19,06,19,10.70
2019,09,19,06,20,10.70
2019,09,19,06,21,10.70
2019,09,19,06,22,10.70
2019,09,19,06,23,10.70
2019,09,19,06,24,10.70
2019,09,19,06,25,10.70
2019,09,19,06,26,10.70
2019,09,19,06,27,10.70
2019,09,19,06,28,10.70
2019,09,19,06,29,10.70
2019,09,19,06,30,10.70
2019,09,19,06,31,10.70
2019,09,19,06,32,10.70
2019,09,19,06,33,10.70
2019,09,19,06,34,10.70
2019,09,19,06,35,10.70
2019,09,19,06,36,10.70
2019,09,19,06,37,10.70
2019,09,19,06,38,10.70
2019,09,19,06,39,10.70
2019,09,19,06,40,10.70
2019,09,19,06,41,10.70
2019,09,19,06,42,10.70
2019,09,19,06,43,10.70
2019,09,19,06,44,10.70
2019,09,19,06,45,10.70
2019,09,19,06,46,10.70
2019,09,19,06,47,10.70
2019,09,19,06,48,10.70
2019,09,19,06,49,10.70
2019,09,19,06,50,10.70
2019,09,19,06,51,10.70
2019,09,19,06,52,10.70
2019,09,19,06,53,10.70
2019,09,19,06,54,10.70
2019,09,19,06,55,10.70
2019,09,19,06,56,10.70
2019,09,19,06,57,10.70
2019,09,19,06,58,10.70
2019,09,19,06,59,10.70
2019,09,19,07,00,10.70
2019,09,19,07,01,10.70
2019,09,19,07,02,10.70
2019,09,19,07,03,10.70
2019,09,19,07,04,10.70
2019,09,19,07,05,10.70
2019,09,19,07,06,10.80
2019,09,19,07,07,10.70
2019,09,19,07,08,10.70
2019,09,19,07,09,10.70
2019,09,19,07,10,10.70
2019,09,19,07,11,10.70
2019,09,19,07,12,10.70
2019,09,19,07,13,10.70
2019,09,19,07,14,10.70
2019,09,19,07,15,10.70
2019,09,19,07,16,10.70
2019,09,19,07,17,10.70
2019,09,19,07,18,10.60
2019,09,19,07,19,10.60
2019,09,19,07,20,10.60
2019,09,19,07,21,10.60
2019,09,19,07,22,10.70
2019,09,19,07,23,10.70
2019,09,19,07,24,10.70
2019,09,19,07,25,10.70
2019,09,19,07,26,10.70
2019,09,19,07,27,10.70
2019,09,19,07,28,10.70
2019,09,19,07,29,10.70
2019,09,19,07,30,10.70
2019,09,19,07,31,10.70
2019,09,19,07,32,10.70
2019,09,19,07,33,10.70
2019,09,19,07,34,10.70
2019,09,19,07,35,10.70
2019,09,19,07,36,10.70
2019,09,19,07,37,10.70
2019,09,19,07,38,10.70
2019,09,19,07,39,10.70
2019,09,19,07,40,10.70
2019,09,19,07,41,10.70
2019,09,19,07,42,10.70
2019,09,19,07,43,10.70
2019,09,19,07,44,10.70
2019,09,19,07,45,10.70
2019,09,19,07,46,10.70
2019,09,19,07,47,10.70
2019,09,19,07,48,10.80
2019,09,19,07,49,10.70
2019,09,19,07,50,10.80
2019,09,19,07,51,10.80
2019,09,19,07,52,10.80
2019,09,19,07,53,10.80
2019,09,19,07,54,10.80
2019,09,19,07,55,10.80
2019,09,19,07,56,10.80
2019,09,19,07,57,10.80
2019,09,19,07,58,10.80
2019,09,19,07,59,10.80
2019,09,19,08,00,10.90
2019,09,19,08,01,10.90
2019,09,19,08,02,10.90
2019,09,19,08,03,11.00
2019,09,19,08,04,11.00
2019,09,19,08,05,11.00
2019,09,19,08,06,11.00
2019,09,19,08,07,11.10
2019,09,19,08,08,11.10
2019,09,19,08,09,11.10
2019,09,19,08,10,11.10
2019,09,19,08,11,11.10
2019,09,19,08,12,11.10
2019,09,19,08,13,11.20
2019,09,19,08,14,11.20
2019,09,19,08,15,11.20
2019,09,19,08,16,11.20
2019,09,19,08,17,11.20
2019,09,19,08,18,11.20
2019,09,19,08,19,11.20
2019,09,19,08,20,11.20
2019,09,19,08,21,11.20
2019,09,19,08,22,11.20
2019,09,19,08,23,11.20
2019,09,19,08,24,11.20
2019,09,19,08,25,11.20
2019,09,19,08,26,11.20
2019,09,19,08,27,11.20
2019,09,19,08,28,11.20
2019,09,19,08,29,11.20
2019,09,19,08,30,11.30
2019,09,19,08,31,11.30
2019,09,19,08,32,11.20
2019,09,19,08,33,11.30
2019,09,19,08,34,11.30
2019,09,19,08,35,11.30
2019,09,19,08,36,11.30
2019,09,19,08,37,11.30
2019,09,19,08,38,11.30
2019,09,19,08,39,11.30
2019,09,19,08,40,11.30
2019,09,19,08,41,11.30
2019,09,19,08,42,11.30
2019,09,19,08,43,11.40
2019,09,19,08,44,11.40
2019,09,19,08,45,11.50
2019,09,19,08,46,11.50
2019,09,19,08,47,11.60
2019,09,19,08,48,11.60
2019,09,19,08,49,11.70
2019,09,19,08,50,11.80
2019,09,19,08,51,11.90
2019,09,19,08,52,11.90
2019,09,19,08,53,12.00
2019,09,19,08,54,12.00
2019,09,19,08,55,12.10
2019,09,19,08,56,12.10
2019,09,19,08,57,12.20
2019,09,19,08,58,12.20
2019,09,19,08,59,12.20
2019,09,19,09,00,12.20
2019,09,19,09,01,12.30
2019,09,19,09,02,12.30
2019,09,19,09,03,12.30
2019,09,19,09,04,12.30
2019,09,19,09,05,12.40
2019,09,19,09,06,12.40
2019,09,19,09,07,12.50
2019,09,19,09,08,12.50
2019,09,19,09,09,12.60
2019,09,19,09,10,12.70
2019,09,19,09,11,12.70
2019,09,19,09,12,12.80
2019,09,19,09,13,12.80
2019,09,19,09,14,12.80
2019,09,19,09,15,12.90
2019,09,19,09,16,12.90
2019,09,19,09,17,12.90
2019,09,19,09,18,13.00
2019,09,19,09,19,12.90
2019,09,19,09,20,13.00
2019,09,19,09,21,12.90
2019,09,19,09,22,13.00
2019,09,19,09,23,12.90
2019,09,19,09,24,12.90
2019,09,19,09,25,12.90
2019,09,19,09,26,12.90
2019,09,19,09,27,12.90
2019,09,19,09,28,12.80
2019,09,19,09,29,12.80
2019,09,19,09,30,12.80
2019,09,19,09,31,12.80
2019,09,19,09,32,12.90
2019,09,19,09,33,12.90
2019,09,19,09,34,12.90
2019,09,19,09,35,12.90
2019,09,19,09,36,13.00
2019,09,19,09,37,13.00
2019,09,19,09,38,13.10
2019,09,19,09,39,13.10
2019,09,19,09,40,13.10
2019,09,19,09,41,13.10
2019,09,19,09,42,13.10
2019,09,19,09,43,13.10
2019,09,19,09,44,13.10
2019,09,19,09,45,13.10
2019,09,19,09,46,13.10
2019,09,19,09,47,13.10
2019,09,19,09,48,13.10
2019,09,19,09,49,13.10
2019,09,19,09,50,13.10
2019,09,19,09,51,13.20
2019,09,19,09,52,13.20
2019,09,19,09,53,13.20
2019,09,19,09,54,13.30
2019,09,19,09,55,13.30
2019,09,19,09,56,13.40
2019,09,19,09,57,13.40
2019,09,19,09,58,13.50
2019,09,19,09,59,13.50
2019,09,19,10,00,13.60
2019,09,19,10,01,13.70
2019,09,19,10,02,13.70
2019,09,19,10,03,13.80
2019,09,19,10,04,13.80
2019,09,19,10,05,13.80
2019,09,19,10,06,13.90
2019,09,19,10,07,13.90
2019,09,19,10,08,14.00
2019,09,19,10,09,14.00
2019,09,19,10,10,14.00
2019,09,19,10,11,14.10
2019,09,19,10,12,14.10
2019,09,19,10,13,14.10
2019,09,19,10,14,14.10
2019,09,19,10,15,14.10
2019,09,19,10,16,14.20
2019,09,19,10,17,14.20
2019,09,19,10,18,14.20
2019,09,19,10,19,14.20
2019,09,19,10,20,14.20
2019,09,19,10,21,14.20
2019,09,19,10,22,14.20
2019,09,19,10,23,14.20
2019,09,19,10,24,14.20
2019,09,19,10,25,14.30
2019,09,19,10,26,14.30
2019,09,19,10,27,14.30
2019,09,19,10,28,14.30
2019,09,19,10,29,14.20
2019,09,19,10,30,14.30
2019,09,19,10,31,14.20
2019,09,19,10,32,14.20
2019,09,19,10,33,14.20
2019,09,19,10,34,14.30
2019,09,19,10,35,14.30
2019,09,19,10,36,14.20
2019,09,19,10,37,14.20
2019,09,19,10,38,14.20
2019,09,19,10,39,14.20
2019,09,19,10,40,14.20
2019,09,19,10,41,14.20
2019,09,19,10,42,14.20
2019,09,19,10,43,14.20
2019,09,19,10,44,14.30
2019,09,19,10,45,14.30
2019,09,19,10,46,14.30
2019,09,19,10,47,14.40
2019,09,19,10,48,14.40
2019,09,19,10,49,14.50
2019,09,19,10,50,14.50
2019,09,19,10,51,14.60
2019,09,19,10,52,14.70
2019,09,19,10,53,14.80
2019,09,19,10,54,14.80
2019,09,19,10,55,14.90
2019,09,19,10,56,14.90
2019,09,19,10,57,14.90
2019,09,19,10,58,14.90
2019,09,19,10,59,14.90
2019,09,19,11,00,14.90
2019,09,19,11,01,14.90
2019,09,19,11,02,14.90
2019,09,19,11,03,14.90
2019,09,19,11,04,14.80
2019,09,19,11,05,14.80
2019,09,19,11,06,14.80
2019,09,19,11,07,14.80
2019,09,19,11,08,14.80
2019,09,19,11,09,14.80
2019,09,19,11,10,14.80
2019,09,19,11,11,14.70
2019,09,19,11,12,14.80
2019,09,19,11,13,14.80
2019,09,19,11,14,14.80
2019,09,19,11,15,14.80
2019,09,19,11,16,14.90
2019,09,19,11,17,14.90
2019,09,19,11,18,14.90
2019,09,19,11,19,15.00
2019,09,19,11,20,15.00
2019,09,19,11,21,15.10
2019,09,19,11,22,15.10
2019,09,19,11,23,15.10
2019,09,19,11,24,15.10
2019,09,19,11,25,15.10
2019,09,19,11,26,15.10
2019,09,19,11,27,15.10
2019,09,19,11,28,15.10
2019,09,19,11,29,15.10
2019,09,19,11,30,15.10
2019,09,19,11,31,15.10
2019,09,19,11,32,15.10
2019,09,19,11,33,15.00
2019,09,19,11,34,15.00
2019,09,19,11,35,15.00
2019,09,19,11,36,15.00
2019,09,19,11,37,14.90
2019,09,19,11,38,14.90
2019,09,19,11,39,14.90
2019,09,19,11,40,14.90
2019,09,19,11,41,14.80
2019,09,19,11,42,14.80
2019,09,19,11,43,14.80
2019,09,19,11,44,14.80
2019,09,19,11,45,14.80
2019,09,19,11,46,14.80
2019,09,19,11,47,14.80
2019,09,19,11,48,14.80
2019,09,19,11,49,14.80
2019,09,19,11,50,14.80
2019,09,19,11,51,14.80
2019,09,19,11,52,14.90
2019,09,19,11,53,14.90
2019,09,19,11,54,14.90
2019,09,19,11,55,15.00
2019,09,19,11,56,15.00
2019,09,19,11,57,15.00
2019,09,19,11,58,15.00
2019,09,19,11,59,15.00
2019,09,19,12,00,15.00
2019,09,19,12,01,15.00
2019,09,19,12,02,15.00
2019,09,19,12,03,15.00
2019,09,19,12,04,14.90
2019,09,19,12,05,14.90
2019,09,19,12,06,14.90
2019,09,19,12,07,14.90
2019,09,19,12,08,14.90
2019,09,19,12,09,14.90
2019,09,19,12,10,14.90
2019,09,19,12,11,15.00
2019,09,19,12,12,15.00
2019,09,19,12,13,15.00
2019,09,19,12,14,15.00
2019,09,19,12,15,15.00
2019,09,19,12,16,15.10
2019,09,19,12,17,15.10
2019,09,19,12,18,15.10
2019,09,19,12,19,15.10
2019,09,19,12,20,15.10
2019,09,19,12,21,15.10
2019,09,19,12,22,15.20
2019,09,19,12,23,15.20
2019,09,19,12,24,15.20
2019,09,19,12,25,15.20
2019,09,19,12,26,15.20
2019,09,19,12,27,15.20
2019,09,19,12,28,15.20
2019,09,19,12,29,15.20
2019,09,19,12,30,15.20
2019,09,19,12,31,15.20
2019,09,19,12,32,15.20
2019,09,19,12,33,15.20
2019,09,19,12,34,15.20
2019,09,19,12,35,15.20
2019,09,19,12,36,15.20
2019,09,19,12,37,15.20
2019,09,19,12,38,15.20
2019,09,19,12,39,15.20
2019,09,19,12,40,15.10
2019,09,19,12,41,15.10
2019,09,19,12,42,15.10
2019,09,19,12,43,15.10
2019,09,19,12,44,15.10
2019,09,19,12,45,15.10
2019,09,19,12,46,15.10
2019,09,19,12,47,15.10
2019,09,19,12,48,15.10
2019,09,19,12,49,15.10
2019,09,19,12,50,15.10
2019,09,19,12,51,15.10
2019,09,19,12,52,15.10
2019,09,19,12,53,15.10
2019,09,19,12,54,15.10
2019,09,19,12,55,15.20
2019,09,19,12,56,15.10
2019,09,19,12,57,15.10
2019,09,19,12,58,15.10
2019,09,19,12,59,15.10
2019,09,19,13,00,15.10
2019,09,19,13,01,15.00
2019,09,19,13,02,15.00
2019,09,19,13,03,14.90
2019,09,19,13,04,14.90
2019,09,19,13,05,14.90
2019,09,19,13,06,14.90
2019,09,19,13,07,14.90
2019,09,19,13,08,14.80
2019,09,19,13,09,14.80
2019,09,19,13,10,14.80
2019,09,19,13,11,14.80
2019,09,19,13,12,14.80
2019,09,19,13,13,14.80
2019,09,19,13,14,14.80
2019,09,19,13,15,14.80
2019,09,19,13,16,14.80
2019,09,19,13,17,14.90
2019,09,19,13,18,14.80
2019,09,19,13,19,14.80
2019,09,19,13,20,14.80
2019,09,19,13,21,14.80
2019,09,19,13,22,14.80
2019,09,19,13,23,14.90
2019,09,19,13,24,14.90
2019,09,19,13,25,14.90
2019,09,19,13,26,14.90
2019,09,19,13,27,15.00
2019,09,19,13,28,15.10
2019,09,19,13,29,15.10
2019,09,19,13,30,15.10
2019,09,19,13,31,15.20
2019,09,19,13,32,15.20
2019,09,19,13,33,15.20
2019,09,19,13,34,15.20
2019,09,19,13,35,15.20
2019,09,19,13,36,15.20
2019,09,19,13,37,15.20
2019,09,19,13,38,15.20
2019,09,19,13,39,15.20
2019,09,19,13,40,15.20
2019,09,19,13,41,15.10
2019,09,19,13,42,15.10
2019,09,19,13,43,15.10
2019,09,19,13,44,15.10
2019,09,19,13,45,15.10
2019,09,19,13,46,15.10
2019,09,19,13,47,15.10
2019,09,19,13,48,15.00
2019,09,19,13,49,15.00
2019,09,19,13,50,15.00
2019,09,19,13,51,14.90
2019,09,19,13,52,14.90
2019,09,19,13,53,14.90
2019,09,19,13,54,14.90
2019,09,19,13,55,14.90
2019,09,19,13,56,14.80
2019,09,19,13,57,14.80
2019,09,19,13,58,14.80
2019,09,19,13,59,14.80
2019,09,19,14,00,14.90
2019,09,19,14,01,14.80
2019,09,19,14,02,14.90
2019,09,19,14,03,14.90
2019,09,19,14,04,14.90
2019,09,19,14,05,14.90
2019,09,19,14,06,14.90
2019,09,19,14,07,14.90
2019,09,19,14,08,14.80
2019,09,19,14,09,14.80
2019,09,19,14,10,14.80
2019,09,19,14,11,14.80
2019,09,19,14,12,14.80
2019,09,19,14,13,14.80
2019,09,19,14,14,14.80
2019,09,19,14,15,14.80
2019,09,19,14,16,14.80
2019,09,19,14,17,14.80
2019,09,19,14,18,14.80
2019,09,19,14,19,14.80
2019,09,19,14,20,14.80
2019,09,19,14,21,14.90
2019,09,19,14,22,14.90
2019,09,19,14,23,14.90
2019,09,19,14,24,14.90
2019,09,19,14,25,14.90
2019,09,19,14,26,14.90
2019,09,19,14,27,14.90
2019,09,19,14,28,14.90
2019,09,19,14,29,14.90
2019,09,19,14,30,14.90
2019,09,19,14,31,14.90
2019,09,19,14,32,14.90
2019,09,19,14,33,14.90
2019,09,19,14,34,14.90
2019,09,19,14,35,14.90
2019,09,19,14,36,14.90
2019,09,19,14,37,14.90
2019,09,19,14,38,14.90
2019,09,19,14,39,14.90
2019,09,19,14,40,14.90
2019,09,19,14,41,14.90
2019,09,19,14,42,14.90
2019,09,19,14,43,14.90
2019,09,19,14,44,15.00
2019,09,19,14,45,15.00
2019,09,19,14,46,15.00
2019,09,19,14,47,15.10
2019,09,19,14,48,15.10
2019,09,19,14,49,15.10
2019,09,19,14,50,15.10
2019,09,19,14,51,15.10
2019,09,19,14,52,15.10
2019,09,19,14,53,15.10
2019,09,19,14,54,15.10
2019,09,19,14,55,15.10
2019,09,19,14,56,15.20
2019,09,19,14,57,15.20
2019,09,19,14,58,15.20
2019,09,19,14,59,15.20
2019,09,19,15,00,15.20
2019,09,19,15,01,15.20
2019,09,19,15,02,15.20
2019,09,19,15,03,15.20
2019,09,19,15,04,15.20
2019,09,19,15,05,15.20
2019,09,19,15,06,15.20
2019,09,19,15,07,15.30
2019,09,19,15,08,15.30
2019,09,19,15,09,15.30
2019,09,19,15,10,15.30
2019,09,19,15,11,15.30
2019,09,19,15,12,15.20
2019,09,19,15,13,15.20
2019,09,19,15,14,15.20
2019,09,19,15,15,15.20
2019,09,19,15,16,15.10
2019,09,19,15,17,15.10
2019,09,19,15,18,15.10
2019,09,19,15,19,15.10
2019,09,19,15,20,15.10
2019,09,19,15,21,15.00
2019,09,19,15,22,15.00
2019,09,19,15,23,15.00
2019,09,19,15,24,14.90
2019,09,19,15,25,14.90
2019,09,19,15,26,14.90
2019,09,19,15,27,14.90
2019,09,19,15,28,14.90
2019,09,19,15,29,14.80
2019,09,19,15,30,14.90
2019,09,19,15,31,14.80
2019,09,19,15,32,14.80
2019,09,19,15,33,14.80
2019,09,19,15,34,14.80
2019,09,19,15,35,14.80
2019,09,19,15,36,14.70
2019,09,19,15,37,14.80
2019,09,19,15,38,14.80
2019,09,19,15,39,14.80
2019,09,19,15,40,14.80
2019,09,19,15,41,14.80
2019,09,19,15,42,14.80
2019,09,19,15,43,14.80
2019,09,19,15,44,14.80
2019,09,19,15,45,14.80
2019,09,19,15,46,14.70
2019,09,19,15,47,14.70
2019,09,19,15,48,14.70
2019,09,19,15,49,14.70
2019,09,19,15,50,14.70
2019,09,19,15,51,14.60
2019,09,19,15,52,14.60
2019,09,19,15,53,14.60
2019,09,19,15,54,14.60
2019,09,19,15,55,14.60
2019,09,19,15,56,14.50
2019,09,19,15,57,14.50
2019,09,19,15,58,14.50
2019,09,19,15,59,14.40
2019,09,19,16,00,14.40
2019,09,19,16,01,14.40
2019,09,19,16,02,14.40
2019,09,19,16,03,14.30
2019,09,19,16,04,14.30
2019,09,19,16,05,14.30
2019,09,19,16,06,14.30
2019,09,19,16,07,14.30
2019,09,19,16,08,14.30
2019,09,19,16,09,14.30
2019,09,19,16,10,14.30
2019,09,19,16,11,14.30
2019,09,19,16,12,14.20
2019,09,19,16,13,14.20
2019,09,19,16,14,14.20
2019,09,19,16,15,14.20
2019,09,19,16,16,14.20
2019,09,19,16,17,14.20
2019,09,19,16,18,14.20
2019,09,19,16,19,14.20
2019,09,19,16,20,14.20
2019,09,19,16,21,14.20
2019,09,19,16,22,14.10
2019,09,19,16,23,14.10
2019,09,19,16,24,14.10
2019,09,19,16,25,14.10
2019,09,19,16,26,14.10
2019,09,19,16,27,14.10
2019,09,19,16,28,14.00
2019,09,19,16,29,14.00
2019,09,19,16,30,14.00
2019,09,19,16,31,13.90
2019,09,19,16,32,13.90
2019,09,19,16,33,13.90
2019,09,19,16,34,13.90
2019,09,19,16,35,13.90
2019,09,19,16,36,13.90
2019,09,19,16,37,13.90
2019,09,19,16,38,13.90
2019,09,19,16,39,13.90
2019,09,19,16,40,13.80
2019,09,19,16,41,13.80
2019,09,19,16,42,13.80
2019,09,19,16,43,13.80
2019,09,19,16,44,13.80
2019,09,19,16,45,13.80
2019,09,19,16,46,13.80
2019,09,19,16,47,13.80
2019,09,19,16,48,13.80
2019,09,19,16,49,13.80
2019,09,19,16,50,13.80
2019,09,19,16,51,13.80
2019,09,19,16,52,13.80
2019,09,19,16,53,13.80
2019,09,19,16,54,13.80
2019,09,19,16,55,13.80
2019,09,19,16,56,13.80
2019,09,19,16,57,13.80
2019,09,19,16,58,13.80
2019,09,19,16,59,13.80
2019,09,19,17,00,13.80
2019,09,19,17,01,13.80
2019,09,19,17,02,13.80
2019,09,19,17,03,13.80
2019,09,19,17,04,13.80
2019,09,19,17,05,13.80
2019,09,19,17,06,13.80
2019,09,19,17,07,13.80
2019,09,19,17,08,13.80
2019,09,19,17,09,13.80
2019,09,19,17,10,13.80
2019,09,19,17,11,13.80
2019,09,19,17,12,13.80
2019,09,19,17,13,13.80
2019,09,19,17,14,13.80
2019,09,19,17,15,13.80
2019,09,19,17,16,13.80
2019,09,19,17,17,13.80
2019,09,19,17,18,13.80
2019,09,19,17,19,13.80